DW4184 Weather Reports


time (UTC)temp
C
wind
direction
speed
KPH
gust
KPH
rain 1hr
cm
rain 24hr
cm
rain mn
cm
humidity
%
barometer
mb
20260504050219 6 182 0.0 0.0 0.00 0.00 0.00 89 1016.0
20260504045202 6 302 0.0 0.0 0.00 0.00 0.00 89 1016.0
20260504044156 6 305 0.0 4.8 0.00 0.00 0.00 89 1016.0
20260504043208 6 304 0.0 4.8 0.00 0.00 0.00 88 1016.0
20260504042211 6 296 0.0 0.0 0.00 0.00 0.00 87 1016.0
20260504041137 7 305 0.0 3.2 0.00 0.00 0.00 88 1015.6
20260504040153 7 207 0.0 0.0 0.00 0.00 0.00 86 1015.6
20260504035152 7 323 0.0 1.6 0.00 0.00 0.00 88 1015.7
20260504034145 7 316 0.0 0.0 0.00 0.00 0.00 86 1015.9
20260504033142 7 315 0.0 0.0 0.00 0.00 0.00 85 1015.9
20260504031031 8 319 0.0 3.2 0.00 0.00 0.00 83 1015.8
20260504030023 8 103 0.0 0.0 0.00 0.00 0.00 81 1015.7
20260504025022 8 182 0.0 3.2 0.00 0.00 0.00 81 1016.0
20260504024025 9 281 0.0 1.6 0.00 0.00 0.00 80 1015.7
20260504022951 9 121 0.0 3.2 0.00 0.00 0.00 80 1015.5
20260504022001 9 231 0.0 0.0 0.00 0.00 0.00 80 1015.4
20260504020934 10 319 0.0 3.2 0.00 0.00 0.00 79 1015.3
20260504015947 10 137 0.0 0.0 0.00 0.00 0.00 75 1015.4
20260504012722 10 137 0.0 0.0 0.00 0.00 0.00 71 1015.0
20260504011648 11 130 0.0 0.0 0.00 0.00 0.00 71 1014.8
20260504010620 11 130 0.0 1.6 0.00 0.00 0.00 68 1014.6
20260504005555 11 180 0.0 0.0 0.00 0.00 0.00 69 1015.2
20260504004616 12 173 0.0 0.0 0.00 0.00 0.00 67 1014.9
20260504003626 12 96 0.0 0.0 0.00 0.00 0.00 65 1014.8
20260504002648 12 96 0.0 0.0 0.00 0.00 0.00 63 1014.7
20260504001619 13 61 0.0 0.0 0.00 0.00 0.00 58 1014.6
20260504000559 14 277 0.0 0.0 0.00 0.00 0.00 57 1014.5
20260503235559 15 277 0.0 0.0 0.00 0.00 0.00 56 1014.6
20260503233446 16 277 0.0 0.0 0.00 0.00 0.00 42 1014.3
20260503232509 17 283 0.0 0.0 0.00 0.00 0.00 41 1014.0
20260503231441 18 259 0.0 8.0 0.00 0.00 0.00 36 1014.0
20260503230431 19 15 1.6 8.0 0.00 0.00 0.00 34 1014.1
20260503225402 20 288 0.0 3.2 0.00 0.00 0.00 31 1014.0
20260503224424 20 307 3.2 8.0 0.00 0.00 0.00 31 1014.0
20260503223449 20 329 3.2 8.0 0.00 0.00 0.00 31 1014.1
20260503222451 20 273 1.6 8.0 0.00 0.00 0.00 28 1014.1
20260503220333 20 322 1.6 16.1 0.00 0.00 0.00 28 1014.1
20260503215339 20 315 3.2 16.1 0.00 0.00 0.00 24 1014.2
20260503214339 20 313 3.2 14.5 0.00 0.00 0.00 27 1014.2
20260503213347 20 61 3.2 14.5 0.00 0.00 0.00 27 1014.2
20260503212320 20 72 3.2 12.9 0.00 0.00 0.00 24 1014.4
20260503211302 20 333 6.4 17.7 0.00 0.00 0.00 27 1014.5
20260503210237 21 355 3.2 17.7 0.00 0.00 0.00 22 1014.4
20260503204034 20 342 4.8 20.9 0.00 0.00 0.00 31 1014.6
20260503200729 20 31 1.6 14.5 0.00 0.00 0.00 31 1015.1
20260503195713 20 313 3.2 14.5 0.00 0.00 0.00 31 1015.2
20260503194717 20 192 1.6 9.7 0.00 0.00 0.00 33 1015.4
20260503193712 20 227 1.6 12.9 0.00 0.00 0.00 32 1015.4
20260503192649 20 309 3.2 12.9 0.00 0.00 0.00 24 1015.7
20260503191614 20 342 3.2 14.5 0.00 0.00 0.00 27 1015.9
20260503190626 20 331 4.8 14.5 0.00 0.00 0.00 30 1015.9
20260503185601 19 277 3.2 17.7 0.00 0.00 0.00 33 1016.0
20260503183508 19 163 4.8 20.9 0.00 0.00 0.00 26 1016.2
20260503182518 19 209 4.8 14.5 0.00 0.00 0.00 25 1016.3
20260503181537 18 67 4.8 14.5 0.00 0.00 0.00 30 1016.4
20260503180544 19 304 1.6 12.9 0.00 0.00 0.00 38 1016.4
20260503173303 18 194 1.6 6.4 0.00 0.00 0.00 40 1016.8
20260503172320 17 82 1.6 9.7 0.00 0.00 0.00 47 1017.0
20260503170155 17 76 1.6 4.8 0.00 0.00 0.00 43 1017.5
20260503130651 5 100 0.0 0.0 0.00 0.00 0.00 97 1019.0
20260503110328 2 98 0.0 0.0 0.00 0.00 0.00 95 1018.2
20260503100238 2 81 0.0 0.0 0.00 0.00 0.00 94 1017.2
20260503081023 3 46 0.0 0.0 0.00 0.00 0.00 93 1016.1
20260503072855 3 46 0.0 0.0 0.00 0.00 0.00 92 1015.4
20260503071823 3 46 0.0 0.0 0.00 0.00 0.00 92 1015.2
20260503070757 3 46 0.0 0.0 0.00 0.00 0.00 92 1015.0